FCK2FT EDWE-EDWE

Flight info

Callsign FCK2FT
Flight time N/A
Altitude 12000
Route EDWR DCT EDWJ DCT EDWY DCT EDWZ DCT EDWL DCT EDWG
Aircraft BE20/L-SBGRY/S

Departure

Time 2026-04-14 16:51
Airport Emden Airport (EDWE)

Arrival

Time N/A
Airport Emden Airport (EDWE)
Time Latitude Longitude Altitude Speed Heading
2026-04-14 16:44 53.38976 7.22873 3 ft 0 kts 205°
2026-04-14 16:49 53.38971 7.22870 3 ft 3 kts 200°
2026-04-14 16:49 53.38953 7.22937 4 ft 14 kts 71°
2026-04-14 16:49 53.39015 7.23071 5 ft 18 kts
2026-04-14 16:50 53.39121 7.23154 6 ft 18 kts 77°
2026-04-14 16:50 53.39169 7.23403 4 ft 27 kts 68°
2026-04-14 16:50 53.39261 7.23586 2 ft 16 kts 335°
2026-04-14 16:50 53.39254 7.23428 3 ft 22 kts 254°
2026-04-14 16:51 53.39148 7.22762 3 ft 95 kts 250°
2026-04-14 16:51 53.38865 7.21464 228 ft 131 kts 255°
2026-04-14 16:51 53.38549 7.19862 709 ft 151 kts 255°
2026-04-14 16:51 53.38235 7.18185 1552 ft 149 kts 256°
2026-04-14 16:52 53.37898 7.16569 2408 ft 147 kts 239°
2026-04-14 16:52 53.37089 7.15602 3236 ft 150 kts 194°
2026-04-14 16:52 53.36088 7.15927 4023 ft 156 kts 149°
2026-04-14 16:52 53.35498 7.17457 4828 ft 165 kts 102°
2026-04-14 16:53 53.35617 7.19573 5013 ft 204 kts 77°
2026-04-14 16:53 53.35969 7.22042 5013 ft 230 kts 79°
2026-04-14 16:53 53.36291 7.24745 5005 ft 242 kts 80°
2026-04-14 16:53 53.36603 7.27565 4998 ft 249 kts 81°
2026-04-14 16:54 53.36912 7.30437 4996 ft 252 kts 81°
2026-04-14 16:54 53.37222 7.33333 4994 ft 253 kts 81°
2026-04-14 16:54 53.37534 7.36237 4993 ft 254 kts 81°
2026-04-14 16:54 53.37843 7.39110 4992 ft 254 kts 81°
2026-04-14 16:55 53.38157 7.42024 4991 ft 254 kts 81°
2026-04-14 16:55 53.38472 7.44937 4994 ft 254 kts 81°
2026-04-14 16:55 53.38786 7.47849 4996 ft 254 kts 81°
2026-04-14 16:55 53.39099 7.50766 5000 ft 255 kts 81°
2026-04-14 16:56 53.39413 7.53688 4998 ft 254 kts 81°
2026-04-14 16:56 53.39723 7.56592 4997 ft 254 kts 81°
2026-04-14 16:56 53.40035 7.59508 5002 ft 254 kts 81°
2026-04-14 16:56 53.40341 7.62384 4998 ft 254 kts 81°
2026-04-14 16:57 53.40651 7.65294 4995 ft 253 kts 81°
2026-04-14 16:57 53.40960 7.68203 4993 ft 254 kts 81°
2026-04-14 16:57 53.41268 7.71119 4995 ft 254 kts 81°
2026-04-14 16:57 53.41576 7.74035 5001 ft 254 kts 81°
2026-04-14 16:58 53.41883 7.76945 4996 ft 253 kts 80°
2026-04-14 16:58 53.42188 7.79842 4991 ft 252 kts 80°
2026-04-14 16:58 53.42490 7.82735 4991 ft 252 kts 80°
2026-04-14 16:58 53.42792 7.85625 4996 ft 252 kts 80°
2026-04-14 16:59 53.43093 7.88514 4995 ft 252 kts 80°
2026-04-14 16:59 53.43394 7.91404 4996 ft 252 kts 80°
2026-04-14 16:59 53.43689 7.94254 4996 ft 251 kts 81°
2026-04-14 16:59 53.43988 7.97140 4996 ft 251 kts 81°
2026-04-14 17:00 53.44285 8.00025 4996 ft 251 kts 80°
2026-04-14 17:00 53.44582 8.02909 4997 ft 251 kts 81°
2026-04-14 17:00 53.44878 8.05795 5000 ft 251 kts 80°
2026-04-14 17:00 53.45175 8.08685 5001 ft 252 kts 81°
2026-04-14 17:01 53.45471 8.11580 5002 ft 252 kts 81°
2026-04-14 17:01 53.45667 8.13502 5001 ft 252 kts 81°
2026-04-14 17:01 53.46058 8.17340 5003 ft 252 kts 81°
2026-04-14 17:01 53.46352 8.20244 5005 ft 253 kts 81°
2026-04-14 17:02 53.46647 8.23161 4998 ft 254 kts 81°
2026-04-14 17:02 53.46943 8.26091 5000 ft 255 kts 81°
2026-04-14 17:02 53.47239 8.29022 4999 ft 255 kts 80°
2026-04-14 17:02 53.47434 8.30962 5004 ft 255 kts 80°
2026-04-14 17:03 53.47730 8.33905 5001 ft 255 kts 80°
2026-04-14 17:03 53.48023 8.36839 5001 ft 255 kts 81°
2026-04-14 17:03 53.48411 8.40733 4998 ft 255 kts 81°
2026-04-14 17:03 53.48702 8.43667 5002 ft 255 kts 81°
2026-04-14 17:04 53.48993 8.46611 5001 ft 255 kts 81°
2026-04-14 17:04 53.49283 8.49543 5002 ft 255 kts 81°
2026-04-14 17:04 53.49475 8.51492 5001 ft 255 kts 81°
2026-04-14 17:04 53.49765 8.54428 5001 ft 255 kts 81°
2026-04-14 17:05 53.50053 8.57363 5001 ft 255 kts 81°
2026-04-14 17:05 53.50341 8.60301 5001 ft 255 kts 81°
2026-04-14 17:05 53.50628 8.63240 5000 ft 255 kts 81°
2026-04-14 17:05 53.51006 8.67134 5004 ft 255 kts 81°
2026-04-14 17:06 53.51199 8.69123 5002 ft 255 kts 81°
2026-04-14 17:06 53.51483 8.72059 4997 ft 255 kts 81°
2026-04-14 17:06 53.51767 8.75001 5010 ft 255 kts 81°
2026-04-14 17:06 53.52047 8.77908 4999 ft 256 kts 81°
2026-04-14 17:07 53.52331 8.80861 5001 ft 255 kts 81°
2026-04-14 17:07 53.52613 8.83799 5000 ft 255 kts 81°
2026-04-14 17:07 53.52895 8.86742 5001 ft 255 kts 81°
2026-04-14 17:07 53.53174 8.89681 4999 ft 254 kts 81°
2026-04-14 17:08 53.53453 8.92616 5001 ft 254 kts 81°
2026-04-14 17:08 53.53731 8.95550 4999 ft 254 kts 81°
2026-04-14 17:08 53.54005 8.98442 4997 ft 254 kts 81°
2026-04-14 17:08 53.54281 9.01373 5001 ft 254 kts 81°
2026-04-14 17:09 53.54557 9.04306 4999 ft 254 kts 81°
2026-04-14 17:09 53.54832 9.07238 5002 ft 254 kts 81°
2026-04-14 17:09 53.55106 9.10169 5001 ft 254 kts 81°
2026-04-14 17:09 53.55379 9.13102 5000 ft 254 kts 81°
2026-04-14 17:10 53.55652 9.16032 5003 ft 254 kts 81°
2026-04-14 17:10 53.55923 9.18961 5004 ft 254 kts 81°
2026-04-14 17:10 53.56195 9.21902 5003 ft 254 kts 81°
2026-04-14 17:10 53.56470 9.24881 4709 ft 263 kts 81°
2026-04-14 17:11 53.56748 9.27911 4312 ft 268 kts 81°
2026-04-14 17:11 53.57033 9.31012 3921 ft 268 kts 81°
2026-04-14 17:11 53.57316 9.34112 3573 ft 267 kts 81°
2026-04-14 17:11 53.57592 9.37131 3535 ft 256 kts 80°
2026-04-14 17:12 53.57858 9.40061 3519 ft 251 kts 80°
2026-04-14 17:12 53.58120 9.42952 3504 ft 248 kts 80°
2026-04-14 17:12 53.58378 9.45816 3502 ft 247 kts 80°
2026-04-14 17:12 53.58635 9.48667 3503 ft 246 kts 80°
2026-04-14 17:13 53.58891 9.51514 3502 ft 246 kts 80°
2026-04-14 17:13 53.59146 9.54363 3505 ft 247 kts 80°
2026-04-14 17:13 53.59398 9.57181 3505 ft 247 kts 80°
2026-04-14 17:13 53.59658 9.60073 3500 ft 246 kts 80°
2026-04-14 17:14 53.59912 9.62886 3500 ft 246 kts 80°
2026-04-14 17:14 53.60170 9.65741 3442 ft 249 kts 80°
2026-04-14 17:14 53.60435 9.68680 3049 ft 258 kts 80°
2026-04-14 17:14 53.60694 9.71683 2756 ft 259 kts 80°
2026-04-14 17:15 53.60949 9.74661 2615 ft 255 kts 80°
2026-04-14 17:15 53.61189 9.77585 2546 ft 250 kts 80°
2026-04-14 17:15 53.61427 9.80452 2519 ft 245 kts 81°
2026-04-14 17:15 53.61656 9.83246 2507 ft 243 kts 80°
2026-04-14 17:16 53.61882 9.86065 2505 ft 243 kts 80°
2026-04-14 17:16 53.62108 9.88879 2504 ft 242 kts 81°
2026-04-14 17:16 53.62426 9.91620 2495 ft 229 kts 63°
2026-04-14 17:16 53.63171 9.93834 2497 ft 211 kts 55°
2026-04-14 17:17 53.63940 9.95891 2494 ft 205 kts 54°
2026-04-14 17:17 53.64713 9.97891 2502 ft 202 kts 53°
2026-04-14 17:17 53.65485 9.99863 2504 ft 202 kts 53°
2026-04-14 17:17 53.66258 10.01833 2502 ft 201 kts 53°
2026-04-14 17:18 53.67029 10.03805 2496 ft 201 kts 53°
2026-04-14 17:18 53.67890 10.05605 2493 ft 197 kts 46°
2026-04-14 17:18 53.68779 10.07361 2496 ft 198 kts 47°
2026-04-14 17:18 53.69653 10.09120 2505 ft 199 kts 47°
2026-04-14 17:19 53.70536 10.10919 2504 ft 199 kts 47°
2026-04-14 17:19 53.71420 10.12725 2503 ft 200 kts 47°
2026-04-14 17:19 53.72353 10.14425 2493 ft 193 kts 28°
2026-04-14 17:19 53.73571 10.15256 2493 ft 189 kts 15°
2026-04-14 17:20 53.74829 10.15950 2504 ft 191 kts 14°
2026-04-14 17:20 53.76107 10.16369 2499 ft 186 kts
2026-04-14 17:20 53.77379 10.16566 2499 ft 188 kts 16°
2026-04-14 17:20 53.78328 10.18078 2504 ft 199 kts 65°
2026-04-14 17:21 53.78315 10.20406 2503 ft 206 kts 113°
2026-04-14 17:21 53.77316 10.22068 2513 ft 205 kts 160°
2026-04-14 17:21 53.75949 10.22575 2499 ft 199 kts 187°
2026-04-14 17:21 53.74705 10.21740 2499 ft 193 kts 221°
2026-04-14 17:22 53.73720 10.20208 2493 ft 193 kts 229°
2026-04-14 17:22 53.72797 10.18513 2493 ft 199 kts 232°
2026-04-14 17:22 53.71878 10.16737 2493 ft 202 kts 232°
2026-04-14 17:22 53.70981 10.14949 2494 ft 194 kts 233°
2026-04-14 17:23 53.70128 10.13221 2321 ft 194 kts 233°
2026-04-14 17:23 53.69248 10.11421 1925 ft 202 kts 233°
2026-04-14 17:23 53.68368 10.09633 1527 ft 198 kts 232°
2026-04-14 17:23 53.67500 10.07875 1148 ft 192 kts 232°
2026-04-14 17:24 53.66688 10.06229 1059 ft 181 kts 233°
2026-04-14 17:24 53.65855 10.04528 668 ft 193 kts 233°
2026-04-14 17:24 53.65002 10.02812 545 ft 186 kts 232°
2026-04-14 17:24 53.64199 10.01172 506 ft 177 kts 233°
2026-04-14 17:25 53.63422 9.99598 504 ft 172 kts 233°
2026-04-14 17:25 53.62658 9.98052 792 ft 170 kts 229°
2026-04-14 17:25 53.61590 9.97426 1678 ft 173 kts 172°
2026-04-14 17:25 53.60554 9.98588 2148 ft 197 kts 121°
2026-04-14 17:26 53.60239 10.00894 2345 ft 213 kts 90°
2026-04-14 17:26 53.60359 10.03433 2429 ft 221 kts 66°
2026-04-14 17:26 53.61085 10.05741 2463 ft 228 kts 56°
2026-04-14 17:26 53.61970 10.07987 2475 ft 232 kts 51°
2026-04-14 17:27 53.62958 10.10114 2480 ft 234 kts 48°
2026-04-14 17:27 53.64006 10.12224 2479 ft 236 kts 47°
2026-04-14 17:27 53.65078 10.14318 2487 ft 236 kts 46°
2026-04-14 17:27 53.66155 10.16409 2489 ft 236 kts 46°
2026-04-14 17:28 53.67235 10.18503 2490 ft 236 kts 46°
2026-04-14 17:28 53.68316 10.20594 2494 ft 236 kts 46°
2026-04-14 17:28 53.69399 10.22685 2500 ft 236 kts 46°
2026-04-14 17:28 53.70697 10.24204 2498 ft 228 kts 11°
2026-04-14 17:29 53.72189 10.23927 2503 ft 214 kts 330°
2026-04-14 17:29 53.73056 10.22121 2504 ft 196 kts 284°
2026-04-14 17:29 53.72904 10.19929 2497 ft 187 kts 249°
2026-04-14 17:29 53.72281 10.18031 2496 ft 186 kts 240°
2026-04-14 17:30 53.71514 10.16180 2493 ft 198 kts 236°
2026-04-14 17:30 53.70656 10.14326 2500 ft 202 kts 234°
2026-04-14 17:30 53.69760 10.12480 2492 ft 205 kts 233°
2026-04-14 17:30 53.68850 10.10625 2112 ft 204 kts 233°
2026-04-14 17:31 53.67945 10.08784 1712 ft 203 kts 234°
2026-04-14 17:31 53.67046 10.06951 1322 ft 202 kts 234°
2026-04-14 17:31 53.66172 10.05177 934 ft 196 kts 233°
2026-04-14 17:31 53.65318 10.03444 574 ft 188 kts 233°
2026-04-14 17:32 53.64535 10.01897 514 ft 160 kts 225°
2026-04-14 17:32 53.63800 10.00545 504 ft 158 kts 232°
2026-04-14 17:32 53.63031 9.98945 519 ft 190 kts 234°
2026-04-14 17:32 53.62226 9.97257 1228 ft 176 kts 230°
2026-04-14 17:33 53.61156 9.96370 1943 ft 179 kts 195°
2026-04-14 17:33 53.59856 9.96004 2251 ft 200 kts 190°
2026-04-14 17:33 53.58421 9.95729 2383 ft 214 kts 187°
2026-04-14 17:34 53.55504 9.97158 2469 ft 227 kts 157°
2026-04-14 17:34 53.54066 9.98236 2477 ft 231 kts 156°
2026-04-14 17:34 53.52605 9.99388 2513 ft 230 kts 152°
2026-04-14 17:34 53.51549 10.01340 2514 ft 231 kts 110°
2026-04-14 17:35 53.51509 10.03961 2492 ft 224 kts 68°
2026-04-14 17:35 53.52455 10.05818 2496 ft 206 kts 23°
2026-04-14 17:35 53.53779 10.06436 2497 ft 194 kts
2026-04-14 17:35 53.55095 10.06097 2506 ft 193 kts 339°
2026-04-14 17:36 53.56376 10.05191 2175 ft 207 kts 335°
2026-04-14 17:36 53.57699 10.04126 1794 ft 213 kts 333°
2026-04-14 17:36 53.59022 10.03037 1400 ft 208 kts 333°
2026-04-14 17:36 53.60280 10.01980 1017 ft 201 kts 333°
2026-04-14 17:37 53.61506 10.00939 626 ft 193 kts 331°
2026-04-14 17:37 53.62673 9.99933 345 ft 181 kts 331°
2026-04-14 17:37 53.63729 9.98907 860 ft 167 kts 313°
2026-04-14 17:37 53.63977 9.97147 1627 ft 161 kts 255°
2026-04-14 17:38 53.63167 9.95774 2051 ft 181 kts 200°
2026-04-14 17:38 53.61881 9.95386 2309 ft 197 kts 189°
2026-04-14 17:38 53.60473 9.95313 2409 ft 210 kts 167°
2026-04-14 17:38 53.59087 9.96216 2458 ft 218 kts 158°
2026-04-14 17:39 53.57680 9.97276 2472 ft 224 kts 156°
2026-04-14 17:39 53.56260 9.98379 2478 ft 225 kts 155°
2026-04-14 17:39 53.54895 9.99448 2485 ft 211 kts 155°
2026-04-14 17:39 53.53610 10.00462 2479 ft 199 kts 155°
2026-04-14 17:40 53.52409 10.01508 2482 ft 190 kts 140°
2026-04-14 17:40 53.51852 10.03421 2493 ft 186 kts 88°
2026-04-14 17:40 53.52367 10.05293 2503 ft 179 kts 34°
2026-04-14 17:40 53.53502 10.05959 2506 ft 173 kts
2026-04-14 17:41 53.54722 10.06202 2505 ft 181 kts 357°
2026-04-14 17:41 53.55969 10.05620 2286 ft 193 kts 334°
2026-04-14 17:41 53.57173 10.04565 1904 ft 195 kts 332°
2026-04-14 17:41 53.58356 10.03557 1513 ft 187 kts 334°
2026-04-14 17:42 53.59500 10.02622 1112 ft 180 kts 334°
2026-04-14 17:42 53.60595 10.01717 737 ft 176 kts 332°
2026-04-14 17:42 53.61655 10.00814 544 ft 162 kts 331°
2026-04-14 17:42 53.62583 9.99914 618 ft 146 kts 312°
2026-04-14 17:43 53.62698 9.98299 1298 ft 150 kts 244°
2026-04-14 17:43 53.61804 9.97314 1987 ft 171 kts 192°
2026-04-14 17:43 53.60521 9.97020 2279 ft 201 kts 187°
2026-04-14 17:43 53.59050 9.96831 2396 ft 221 kts 185°
2026-04-14 17:44 53.57471 9.96681 2440 ft 231 kts 185°
2026-04-14 17:44 53.55899 9.97054 2464 ft 232 kts 159°
2026-04-14 17:44 53.54413 9.98196 2475 ft 237 kts 154°
2026-04-14 17:44 53.52954 9.99441 2510 ft 239 kts 153°
2026-04-14 17:45 53.51508 10.00720 2512 ft 223 kts 152°
2026-04-14 17:45 53.50212 10.01883 2502 ft 201 kts 152°
2026-04-14 17:45 53.49026 10.02960 2510 ft 188 kts 152°
2026-04-14 17:45 53.47906 10.03982 2519 ft 179 kts 150°
2026-04-14 17:46 53.47196 10.05556 2521 ft 172 kts 97°
2026-04-14 17:46 53.47528 10.07352 2524 ft 163 kts 40°
2026-04-14 17:46 53.48555 10.07797 2530 ft 160 kts 341°
2026-04-14 17:46 53.49301 10.06482 2537 ft 166 kts 283°
2026-04-14 17:47 53.49013 10.04638 2534 ft 174 kts 228°
2026-04-14 17:47 53.47894 10.03939 2529 ft 181 kts 174°
2026-04-14 17:47 53.46855 10.04999 2528 ft 184 kts 122°
2026-04-14 17:47 53.46680 10.07051 2518 ft 182 kts 68°
2026-04-14 17:48 53.47508 10.08512 2517 ft 174 kts 18°
2026-04-14 17:48 53.48688 10.08971 2497 ft 179 kts
2026-04-14 17:48 53.49948 10.09254 2496 ft 186 kts
2026-04-14 17:48 53.51238 10.09255 2497 ft 187 kts 346°
2026-04-14 17:49 53.52466 10.08513 2497 ft 188 kts 335°
2026-04-14 17:49 53.53660 10.07573 2502 ft 191 kts 334°
2026-04-14 17:49 53.54863 10.06601 2434 ft 195 kts 333°
2026-04-14 17:49 53.56043 10.05622 2059 ft 185 kts 334°
2026-04-14 17:50 53.57136 10.04695 1672 ft 156 kts 333°
2026-04-14 17:50 53.57941 10.04006 1255 ft 114 kts 332°
2026-04-14 17:50 53.58673 10.03368 835 ft 121 kts 330°
2026-04-14 17:50 53.59398 10.02711 658 ft 119 kts 335°
2026-04-14 17:51 53.60185 10.02095 611 ft 125 kts 327°
2026-04-14 17:51 53.60921 10.01412 471 ft 120 kts 331°
2026-04-14 17:51 53.61686 10.00755 346 ft 127 kts 330°
2026-04-14 17:51 53.62439 10.00112 109 ft 116 kts 330°
2026-04-14 17:52 53.63094 9.99540 42 ft 82 kts 332°
2026-04-14 17:52 53.63282 9.99415 42 ft 14 kts 39°
2026-04-14 17:52 53.63282 9.99611 44 ft 11 kts 100°
2026-04-14 17:52 53.63279 9.99640 44 ft 0 kts 99°
2026-04-14 17:53 53.63260 9.99716 44 ft 24 kts 138°
2026-04-14 17:53 53.63099 9.99868 44 ft 25 kts 150°
2026-04-14 17:54 53.62955 9.99994 44 ft 17 kts 153°
2026-04-14 17:54 53.62840 10.00075 44 ft 21 kts 153°
2026-04-14 17:54 53.62692 10.00204 44 ft 17 kts 154°
2026-04-14 17:54 53.62624 10.00289 44 ft 10 kts 65°
2026-04-14 17:55 53.62648 10.00364 44 ft 0 kts 62°
2026-04-14 18:01 53.62648 10.00365 17 ft 1 kts 54°
2026-04-14 18:01 53.62636 10.00334 44 ft 10 kts 212°
2026-04-14 18:02 53.62573 10.00212 43 ft 15 kts 243°
2026-04-14 18:02 53.62542 10.00093 43 ft 10 kts 258°
2026-04-14 18:02 53.62590 9.99983 42 ft 16 kts 335°
2026-04-14 18:02 53.62768 9.99831 41 ft 54 kts 332°
2026-04-14 18:03 53.63250 9.99409 73 ft 94 kts 331°
2026-04-14 18:03 53.63880 9.98914 271 ft 105 kts 333°
2026-04-14 18:03 53.64581 9.98146 416 ft 143 kts 298°
2026-04-14 18:03 53.64500 9.96547 1087 ft 150 kts 233°
2026-04-14 18:04 53.63544 9.95903 1798 ft 157 kts 179°
2026-04-14 18:04 53.62396 9.96192 2215 ft 180 kts 169°
2026-04-14 18:04 53.61079 9.96647 2398 ft 205 kts 170°
2026-04-14 18:04 53.59613 9.97137 2462 ft 223 kts 170°
2026-04-14 18:05 53.58055 9.97655 2489 ft 233 kts 170°
2026-04-14 18:05 53.56457 9.98178 2497 ft 235 kts 170°
2026-04-14 18:05 53.54846 9.98698 2506 ft 236 kts 170°
2026-04-14 18:05 53.53227 9.99221 2509 ft 237 kts 170°
2026-04-14 18:06 53.51604 9.99743 2514 ft 238 kts 170°
2026-04-14 18:06 53.49980 10.00101 2518 ft 233 kts 187°
2026-04-14 18:06 53.48441 9.99435 2525 ft 232 kts 199°
2026-04-14 18:06 53.46955 9.98409 2523 ft 231 kts 215°
2026-04-14 18:07 53.45756 9.96639 2524 ft 231 kts 227°
2026-04-14 18:07 53.44671 9.94646 2523 ft 232 kts 230°
2026-04-14 18:07 53.43611 9.92596 2508 ft 233 kts 230°
2026-04-14 18:07 53.42545 9.90542 2508 ft 234 kts 230°
2026-04-14 18:08 53.41464 9.88499 2515 ft 234 kts 229°
2026-04-14 18:08 53.40375 9.86480 2508 ft 234 kts 229°
2026-04-14 18:08 53.39277 9.84470 2512 ft 234 kts 229°
2026-04-14 18:08 53.38171 9.82466 2515 ft 234 kts 228°
2026-04-14 18:09 53.37064 9.80472 2512 ft 234 kts 229°
2026-04-14 18:09 53.35966 9.78501 2510 ft 234 kts 228°
2026-04-14 18:09 53.34854 9.76509 2505 ft 234 kts 228°
2026-04-14 18:09 53.33740 9.74517 2494 ft 234 kts 228°
2026-04-14 18:10 53.32629 9.72531 2588 ft 230 kts 227°
2026-04-14 18:10 53.31597 9.70691 3299 ft 206 kts 228°
2026-04-14 18:10 53.30655 9.69015 4082 ft 190 kts 229°
2026-04-14 18:10 53.29777 9.67452 4922 ft 178 kts 229°
2026-04-14 18:11 53.28950 9.65981 5744 ft 170 kts 230°
2026-04-14 18:11 53.28087 9.64432 5971 ft 197 kts 231°
2026-04-14 18:11 53.27103 9.62654 5998 ft 218 kts 230°
2026-04-14 18:11 53.26057 9.60782 6000 ft 228 kts 230°
2026-04-14 18:12 53.24957 9.58828 6009 ft 233 kts 230°
2026-04-14 18:12 53.23852 9.56875 6304 ft 222 kts 230°